BOX502 EDDP-VHHH

Flight info

Callsign BOX502
Flight time N/A
Altitude 29000
Route DRN2E DRN Z21 OMELO DCT EVIKU DCT OMIFU DCT SAGAN DCT ETNOG DCT DINRO DCT UDROS UN743 GAKSU UT310 SIN UN644 KARDE/N0485F310 UL851 TBN UG261 NOLGA DCT BARAD M747 SUBUT T923 ERLEV L850 BAKUV N701 LARGI B701 KRS A240 INRAK B449 RANAH L750 DUDEG/N0490F330 L750 MERUN G452 LKN A201 LSO A599 LINSO/K0913S1010 A599 GULOT/K0906S1070 A599 POU R473 SIERA
Aircraft B77L/H-SDE1E2E3FGHIJ2J3J4J5M1RWXY/LB1D1

Departure

Time N/A
Airport Leipzig/Halle Airport (EDDP)

Arrival

Time 2026-05-06 08:36
Airport Hong Kong International Airport (VHHH)
Time Latitude Longitude Altitude Speed Heading
2026-05-06 06:38 23.46852 99.21640 34922 ft 523 kts 70°
2026-05-06 06:39 23.49187 99.29144 34928 ft 523 kts 70°
2026-05-06 06:39 23.51514 99.36648 34931 ft 522 kts 70°
2026-05-06 06:40 23.54307 99.43927 34921 ft 520 kts 59°
2026-05-06 06:40 23.57915 99.50755 34932 ft 520 kts 58°
2026-05-06 06:41 23.61531 99.57535 34929 ft 521 kts 58°
2026-05-06 06:41 23.65137 99.64401 34924 ft 522 kts 58°
2026-05-06 06:42 23.68716 99.71279 34925 ft 522 kts 58°
2026-05-06 06:42 23.72293 99.78169 34927 ft 521 kts 58°
2026-05-06 06:43 23.75870 99.85062 34938 ft 522 kts 59°
2026-05-06 06:43 23.79455 99.91975 34939 ft 523 kts 59°
2026-05-06 06:44 23.83044 99.98907 34910 ft 525 kts 59°
2026-05-06 06:44 23.86636 100.05854 34916 ft 525 kts 59°
2026-05-06 06:45 23.90220 100.12799 34912 ft 525 kts 59°
2026-05-06 06:45 23.93806 100.19755 34912 ft 525 kts 59°
2026-05-06 06:46 23.97390 100.26718 34912 ft 525 kts 58°
2026-05-06 06:46 24.00967 100.33674 34903 ft 524 kts 58°
2026-05-06 06:47 24.04534 100.40626 34907 ft 524 kts 58°
2026-05-06 06:47 24.08114 100.47611 34890 ft 528 kts 58°
2026-05-06 06:48 24.11713 100.54643 34893 ft 530 kts 58°
2026-05-06 06:48 24.15294 100.61713 34870 ft 531 kts 59°
2026-05-06 06:49 24.18838 100.68802 34881 ft 531 kts 59°
2026-05-06 06:49 24.22379 100.75900 34862 ft 530 kts 59°
2026-05-06 06:50 24.25917 100.82980 34879 ft 529 kts 59°
2026-05-06 06:50 24.29448 100.90052 34863 ft 528 kts 59°
2026-05-06 06:51 24.32969 100.97120 34877 ft 530 kts 59°
2026-05-06 06:51 24.36504 101.04223 34860 ft 531 kts 59°
2026-05-06 06:52 24.40049 101.11358 34844 ft 533 kts 59°
2026-05-06 06:52 24.43573 101.18461 34861 ft 534 kts 59°
2026-05-06 06:53 24.47122 101.25628 34864 ft 535 kts 59°
2026-05-06 06:53 24.50671 101.32803 34845 ft 536 kts 59°
2026-05-06 06:54 24.54222 101.39997 34845 ft 536 kts 59°
2026-05-06 06:54 24.57768 101.47189 34846 ft 535 kts 59°
2026-05-06 06:55 24.61310 101.54383 34820 ft 535 kts 59°
2026-05-06 06:55 24.64831 101.61580 34815 ft 534 kts 59°
2026-05-06 06:56 24.68309 101.68775 34821 ft 533 kts 59°
2026-05-06 06:56 24.71780 101.75972 34841 ft 533 kts 59°
2026-05-06 06:57 24.75256 101.83178 34824 ft 534 kts 59°
2026-05-06 06:57 24.78736 101.90397 34828 ft 535 kts 59°
2026-05-06 06:58 24.82220 101.97639 34830 ft 536 kts 59°
2026-05-06 06:58 24.85708 102.04899 34828 ft 536 kts 59°
2026-05-06 06:59 24.89188 102.12154 34847 ft 536 kts 59°
2026-05-06 06:59 24.92664 102.19413 34855 ft 535 kts 59°
2026-05-06 07:00 24.96133 102.26667 34851 ft 534 kts 59°
2026-05-06 07:00 24.99567 102.33862 34835 ft 534 kts 60°
2026-05-06 07:01 25.03013 102.41092 34856 ft 533 kts 60°
2026-05-06 07:01 25.06122 102.48487 34839 ft 533 kts 76°
2026-05-06 07:01 25.06546 102.52541 34852 ft 534 kts 92°
2026-05-06 07:02 25.06080 102.56590 34870 ft 532 kts 107°
2026-05-06 07:02 25.04772 102.60374 34879 ft 525 kts 120°
2026-05-06 07:02 25.03077 102.63942 34942 ft 526 kts 120°
2026-05-06 07:03 24.99717 102.71148 34977 ft 531 kts 119°
2026-05-06 07:03 24.96451 102.78474 35005 ft 534 kts 118°
2026-05-06 07:04 24.93193 102.85845 35023 ft 536 kts 118°
2026-05-06 07:04 24.89931 102.93230 34998 ft 536 kts 118°
2026-05-06 07:05 24.86701 103.00629 34954 ft 535 kts 118°
2026-05-06 07:05 24.83479 103.08005 34904 ft 534 kts 118°
2026-05-06 07:06 24.80258 103.15352 34844 ft 532 kts 118°
2026-05-06 07:06 24.77042 103.22666 34836 ft 530 kts 118°
2026-05-06 07:07 24.73850 103.29914 34837 ft 529 kts 118°
2026-05-06 07:07 24.70639 103.37196 34836 ft 529 kts 118°
2026-05-06 07:08 24.67428 103.44465 34842 ft 529 kts 118°
2026-05-06 07:08 24.64205 103.51752 34834 ft 530 kts 118°
2026-05-06 07:09 24.60980 103.59030 34832 ft 531 kts 118°
2026-05-06 07:09 24.57744 103.66325 34837 ft 531 kts 118°
2026-05-06 07:10 24.54627 103.73699 34826 ft 534 kts 113°
2026-05-06 07:10 24.52530 103.81544 34825 ft 537 kts 104°
2026-05-06 07:11 24.50905 103.89544 34812 ft 539 kts 104°
2026-05-06 07:11 24.49246 103.97574 34830 ft 540 kts 104°
2026-05-06 07:12 24.47536 104.05628 34805 ft 543 kts 105°
2026-05-06 07:12 24.45802 104.13696 34805 ft 543 kts 105°
2026-05-06 07:13 24.44061 104.21774 34759 ft 544 kts 105°
2026-05-06 07:13 24.42320 104.29853 34754 ft 543 kts 105°
2026-05-06 07:14 24.40579 104.37915 34744 ft 543 kts 105°
2026-05-06 07:14 24.38837 104.45962 34738 ft 541 kts 105°
2026-05-06 07:15 24.37093 104.53990 34731 ft 541 kts 105°
2026-05-06 07:15 24.35356 104.61961 34737 ft 541 kts 105°
2026-05-06 07:16 24.33605 104.69982 34709 ft 541 kts 105°
2026-05-06 07:16 24.31850 104.77993 34708 ft 540 kts 105°
2026-05-06 07:17 24.30095 104.85990 34723 ft 539 kts 105°
2026-05-06 07:17 24.28336 104.93980 34708 ft 539 kts 105°
2026-05-06 07:18 24.26573 105.01968 34707 ft 539 kts 105°
2026-05-06 07:18 24.24808 105.09948 34725 ft 539 kts 105°
2026-05-06 07:19 24.23038 105.17930 34701 ft 539 kts 105°
2026-05-06 07:19 24.21232 105.25891 34724 ft 538 kts 106°
2026-05-06 07:20 24.19303 105.33807 34721 ft 538 kts 107°
2026-05-06 07:20 24.17360 105.41716 34723 ft 538 kts 106°
2026-05-06 07:21 24.15436 105.49625 34724 ft 537 kts 106°
2026-05-06 07:21 24.13512 105.57544 34734 ft 539 kts 106°
2026-05-06 07:22 24.11905 105.64139 34722 ft 539 kts 106°
2026-05-06 07:22 24.09978 105.72064 34735 ft 539 kts 105°
2026-05-06 07:23 24.08338 105.80058 34714 ft 538 kts 102°
2026-05-06 07:23 24.06828 105.88078 34734 ft 537 kts 103°
2026-05-06 07:24 24.05276 105.96062 34729 ft 536 kts 103°
2026-05-06 07:24 24.03683 106.04024 34729 ft 535 kts 103°
2026-05-06 07:25 24.02082 106.11967 34740 ft 534 kts 103°
2026-05-06 07:25 24.00481 106.19910 34740 ft 535 kts 103°
2026-05-06 07:26 23.98877 106.27847 34733 ft 535 kts 103°
2026-05-06 07:26 23.97280 106.35737 34747 ft 535 kts 103°
2026-05-06 07:27 23.95670 106.43671 34747 ft 534 kts 103°
2026-05-06 07:27 23.94057 106.51592 34761 ft 533 kts 103°
2026-05-06 07:28 23.92479 106.59506 34762 ft 533 kts 101°
2026-05-06 07:28 23.91474 106.71586 34781 ft 532 kts 93°
2026-05-06 07:29 23.91006 106.79655 34792 ft 532 kts 94°
2026-05-06 07:29 23.90496 106.87724 34791 ft 532 kts 94°
2026-05-06 07:30 23.89957 106.95791 34802 ft 532 kts 94°
2026-05-06 07:30 23.89406 107.03865 34805 ft 533 kts 94°
2026-05-06 07:31 23.88855 107.11945 34809 ft 534 kts 94°
2026-05-06 07:31 23.88301 107.20046 34820 ft 535 kts 94°
2026-05-06 07:32 23.87741 107.28153 34831 ft 535 kts 94°
2026-05-06 07:32 23.87177 107.36266 34837 ft 536 kts 94°
2026-05-06 07:33 23.86608 107.44388 34836 ft 536 kts 94°
2026-05-06 07:33 23.86036 107.52497 34839 ft 535 kts 94°
2026-05-06 07:34 23.85460 107.60588 34841 ft 533 kts 94°
2026-05-06 07:34 23.84884 107.68658 34851 ft 532 kts 94°
2026-05-06 07:35 23.84301 107.76727 34855 ft 532 kts 94°
2026-05-06 07:35 23.83717 107.84773 34840 ft 531 kts 94°
2026-05-06 07:36 23.83259 107.92756 34854 ft 530 kts 92°
2026-05-06 07:36 23.82888 108.00777 34855 ft 529 kts 93°
2026-05-06 07:37 23.82488 108.08805 34863 ft 529 kts 93°
2026-05-06 07:37 23.82067 108.16833 34861 ft 530 kts 93°
2026-05-06 07:38 23.81623 108.24860 34869 ft 531 kts 93°
2026-05-06 07:38 23.81162 108.32914 34859 ft 532 kts 93°
2026-05-06 07:39 23.80698 108.40975 34858 ft 532 kts 94°
2026-05-06 07:39 23.80235 108.49034 34862 ft 531 kts 94°
2026-05-06 07:40 23.79769 108.57084 34860 ft 531 kts 94°
2026-05-06 07:40 23.79297 108.65127 34857 ft 531 kts 94°
2026-05-06 07:41 23.78822 108.73161 34865 ft 530 kts 94°
2026-05-06 07:41 23.78343 108.81186 34861 ft 529 kts 94°
2026-05-06 07:42 23.77861 108.89194 34864 ft 528 kts 94°
2026-05-06 07:42 23.77377 108.97183 34868 ft 528 kts 94°
2026-05-06 07:43 23.76888 109.05174 34864 ft 527 kts 94°
2026-05-06 07:43 23.76383 109.13160 34865 ft 527 kts 95°
2026-05-06 07:44 23.75154 109.20977 34874 ft 526 kts 103°
2026-05-06 07:44 23.73510 109.28757 34865 ft 526 kts 103°
2026-05-06 07:45 23.71894 109.36552 34865 ft 527 kts 103°
2026-05-06 07:45 23.70315 109.44360 34863 ft 527 kts 103°
2026-05-06 07:46 23.68736 109.52175 34867 ft 527 kts 103°
2026-05-06 07:46 23.67151 109.59977 34870 ft 527 kts 103°
2026-05-06 07:47 23.65553 109.67783 34866 ft 527 kts 103°
2026-05-06 07:47 23.63945 109.75581 34869 ft 527 kts 103°
2026-05-06 07:48 23.62333 109.83377 34883 ft 527 kts 103°
2026-05-06 07:48 23.60721 109.91170 34885 ft 527 kts 103°
2026-05-06 07:49 23.59106 109.98960 34878 ft 526 kts 103°
2026-05-06 07:49 23.57497 110.06687 34892 ft 526 kts 103°
2026-05-06 07:50 23.55875 110.14464 34880 ft 526 kts 103°
2026-05-06 07:50 23.54252 110.22229 34879 ft 525 kts 103°
2026-05-06 07:51 23.52626 110.29985 34879 ft 525 kts 103°
2026-05-06 07:51 23.51000 110.37735 34875 ft 524 kts 103°
2026-05-06 07:52 23.49418 110.45492 34867 ft 524 kts 102°
2026-05-06 07:52 23.47852 110.53245 34873 ft 525 kts 102°
2026-05-06 07:53 23.46269 110.61016 34867 ft 525 kts 102°
2026-05-06 07:53 23.44683 110.68770 34873 ft 525 kts 103°
2026-05-06 07:54 23.43076 110.76538 34878 ft 525 kts 103°
2026-05-06 07:54 23.41438 110.84238 34880 ft 525 kts 103°
2026-05-06 07:55 23.39786 110.91983 34873 ft 525 kts 103°
2026-05-06 07:55 23.38139 110.99723 34880 ft 525 kts 103°
2026-05-06 07:56 23.36491 111.07455 34881 ft 524 kts 103°
2026-05-06 07:56 23.34840 111.15180 34883 ft 524 kts 103°
2026-05-06 07:57 23.33253 111.22910 34890 ft 523 kts 102°
2026-05-06 07:57 23.31705 111.30646 34891 ft 523 kts 102°
2026-05-06 07:58 23.30143 111.38371 34881 ft 522 kts 102°
2026-05-06 07:58 23.28573 111.46072 34897 ft 521 kts 102°
2026-05-06 07:59 23.27002 111.53761 34896 ft 521 kts 102°
2026-05-06 07:59 23.25373 111.61434 34904 ft 521 kts 103°
2026-05-06 08:00 23.23720 111.69094 34905 ft 521 kts 103°
2026-05-06 08:00 23.22073 111.76767 34908 ft 521 kts 103°
2026-05-06 08:01 23.20427 111.84447 34913 ft 522 kts 102°
2026-05-06 08:01 23.18824 111.92145 34910 ft 522 kts 102°
2026-05-06 08:02 23.17246 111.99804 34920 ft 523 kts 102°
2026-05-06 08:02 23.15645 112.07515 34927 ft 523 kts 102°
2026-05-06 08:03 23.14034 112.15233 34908 ft 524 kts 102°
2026-05-06 08:03 23.12422 112.22933 34917 ft 523 kts 102°
2026-05-06 08:04 23.10805 112.30636 34920 ft 522 kts 102°
2026-05-06 08:04 23.09189 112.38321 34910 ft 521 kts 102°
2026-05-06 08:05 23.07575 112.45980 34929 ft 520 kts 102°
2026-05-06 08:05 23.06550 112.53742 34918 ft 519 kts 93°
2026-05-06 08:06 23.06091 112.61576 34920 ft 519 kts 92°
2026-05-06 08:06 23.05617 112.69392 34927 ft 519 kts 93°
2026-05-06 08:07 23.05096 112.77221 34927 ft 520 kts 93°
2026-05-06 08:07 23.04557 112.85059 34932 ft 521 kts 93°
2026-05-06 08:08 23.04020 112.92855 34933 ft 521 kts 93°
2026-05-06 08:08 23.03475 113.00757 34931 ft 522 kts 93°
2026-05-06 08:09 23.02932 113.08571 34927 ft 522 kts 94°
2026-05-06 08:09 23.02319 113.12431 34917 ft 520 kts 109°
2026-05-06 08:09 23.00763 113.15947 34935 ft 517 kts 126°
2026-05-06 08:10 22.98394 113.18868 34949 ft 514 kts 140°
2026-05-06 08:10 22.95533 113.21178 34931 ft 512 kts 153°
2026-05-06 08:10 22.92295 113.22703 34917 ft 504 kts 166°
2026-05-06 08:10 22.88931 113.23784 34935 ft 505 kts 166°
2026-05-06 08:11 22.82179 113.25965 34930 ft 508 kts 166°
2026-05-06 08:11 22.75473 113.28255 34925 ft 509 kts 165°
2026-05-06 08:12 22.68718 113.30609 34928 ft 510 kts 165°
2026-05-06 08:12 22.65325 113.31788 34492 ft 518 kts 165°
2026-05-06 08:12 22.61859 113.32985 33667 ft 524 kts 165°
2026-05-06 08:13 22.58405 113.34181 33055 ft 518 kts 165°
2026-05-06 08:13 22.54993 113.35365 32508 ft 512 kts 165°
2026-05-06 08:13 22.52708 113.36158 32146 ft 508 kts 165°
2026-05-06 08:13 22.49363 113.37318 31628 ft 502 kts 165°
2026-05-06 08:14 22.46054 113.38463 31115 ft 497 kts 165°
2026-05-06 08:14 22.42777 113.39597 30603 ft 492 kts 165°
2026-05-06 08:14 22.39570 113.40705 30081 ft 489 kts 165°
2026-05-06 08:14 22.36344 113.41819 29492 ft 485 kts 165°
2026-05-06 08:15 22.33146 113.42924 28931 ft 480 kts 165°
2026-05-06 08:15 22.29979 113.44017 28408 ft 476 kts 165°
2026-05-06 08:15 22.26842 113.45100 27885 ft 471 kts 165°
2026-05-06 08:15 22.23736 113.46171 27387 ft 466 kts 165°
2026-05-06 08:16 22.20660 113.47239 26884 ft 462 kts 165°
2026-05-06 08:16 22.17621 113.48335 26396 ft 459 kts 164°
2026-05-06 08:16 22.14610 113.49439 25892 ft 455 kts 164°
2026-05-06 08:16 22.11622 113.50536 25409 ft 452 kts 164°
2026-05-06 08:17 22.08649 113.51621 24912 ft 450 kts 164°
2026-05-06 08:17 22.05694 113.52694 24425 ft 447 kts 164°
2026-05-06 08:17 22.02755 113.53759 23952 ft 444 kts 164°
2026-05-06 08:17 21.99832 113.54513 23733 ft 423 kts 180°
2026-05-06 08:18 21.96963 113.54333 23389 ft 410 kts 195°
2026-05-06 08:18 21.94302 113.53353 22895 ft 400 kts 208°
2026-05-06 08:18 21.91799 113.52073 22459 ft 396 kts 208°
2026-05-06 08:18 21.89320 113.50803 22009 ft 393 kts 208°
2026-05-06 08:19 21.86851 113.49549 21556 ft 392 kts 207°
2026-05-06 08:19 21.84373 113.48304 21112 ft 393 kts 207°
2026-05-06 08:19 21.81889 113.47067 20669 ft 393 kts 207°
2026-05-06 08:19 21.79402 113.45834 20227 ft 394 kts 207°
2026-05-06 08:20 21.76923 113.44609 19925 ft 387 kts 207°
2026-05-06 08:20 21.74540 113.43434 19754 ft 367 kts 207°
2026-05-06 08:20 21.72210 113.42519 19582 ft 351 kts 191°
2026-05-06 08:20 21.69824 113.42531 19445 ft 337 kts 171°
2026-05-06 08:21 21.67624 113.43286 19140 ft 330 kts 158°
2026-05-06 08:21 21.65664 113.44555 18828 ft 331 kts 141°
2026-05-06 08:21 21.64017 113.46297 18535 ft 334 kts 136°
2026-05-06 08:21 21.62388 113.48127 18169 ft 343 kts 136°
2026-05-06 08:22 21.60714 113.49980 17718 ft 347 kts 136°
2026-05-06 08:22 21.59032 113.51831 17309 ft 343 kts 133°
2026-05-06 08:22 21.57840 113.53989 16597 ft 337 kts 106°
2026-05-06 08:22 21.57684 113.56474 15646 ft 336 kts 78°
2026-05-06 08:23 21.58476 113.58783 14785 ft 336 kts 57°
2026-05-06 08:23 21.59936 113.60746 14291 ft 335 kts 41°
2026-05-06 08:23 21.61747 113.62262 14002 ft 326 kts 26°
2026-05-06 08:23 21.63835 113.63172 13716 ft 316 kts 11°
2026-05-06 08:24 21.65909 113.63639 13139 ft 304 kts
2026-05-06 08:24 21.68016 113.64035 12267 ft 303 kts
2026-05-06 08:24 21.70102 113.64410 11395 ft 305 kts
2026-05-06 08:24 21.72166 113.64783 11107 ft 298 kts
2026-05-06 08:25 21.74202 113.65159 10766 ft 295 kts
2026-05-06 08:25 21.76185 113.65530 10456 ft 292 kts
2026-05-06 08:25 21.78179 113.65908 10208 ft 289 kts
2026-05-06 08:25 21.80140 113.66282 10082 ft 285 kts
2026-05-06 08:26 21.82110 113.66659 9856 ft 292 kts
2026-05-06 08:26 21.84124 113.67045 9525 ft 295 kts
2026-05-06 08:26 21.86132 113.67433 9170 ft 292 kts
2026-05-06 08:26 21.88123 113.67819 8838 ft 289 kts
2026-05-06 08:27 21.90091 113.68201 8509 ft 285 kts
2026-05-06 08:27 21.92031 113.68578 8191 ft 281 kts
2026-05-06 08:27 21.93942 113.68949 7882 ft 277 kts
2026-05-06 08:27 21.95826 113.69315 7579 ft 273 kts
2026-05-06 08:28 21.97686 113.69676 7268 ft 270 kts
2026-05-06 08:28 21.99525 113.70034 6966 ft 267 kts
2026-05-06 08:28 22.01345 113.70388 6690 ft 263 kts
2026-05-06 08:28 22.03138 113.70737 6385 ft 261 kts
2026-05-06 08:29 22.04911 113.71082 6066 ft 257 kts
2026-05-06 08:29 22.06645 113.71419 5781 ft 251 kts
2026-05-06 08:29 22.08368 113.71753 5521 ft 253 kts
2026-05-06 08:29 22.10113 113.72092 5234 ft 258 kts
2026-05-06 08:30 22.11881 113.72437 4908 ft 258 kts
2026-05-06 08:30 22.13637 113.72779 4605 ft 254 kts
2026-05-06 08:30 22.15361 113.73115 4305 ft 249 kts
2026-05-06 08:30 22.17044 113.73444 4014 ft 242 kts
2026-05-06 08:31 22.18655 113.73757 3861 ft 231 kts 10°
2026-05-06 08:31 22.20271 113.74072 3836 ft 237 kts 10°
2026-05-06 08:31 22.21901 113.74390 3482 ft 236 kts 10°
2026-05-06 08:31 22.23494 113.74700 3222 ft 229 kts 11°
2026-05-06 08:32 22.25040 113.75002 2940 ft 222 kts 11°
2026-05-06 08:32 22.26503 113.75286 2715 ft 210 kts 11°
2026-05-06 08:32 22.27825 113.75761 2387 ft 194 kts 40°
2026-05-06 08:32 22.28548 113.76908 2164 ft 186 kts 76°
2026-05-06 08:33 22.28924 113.78248 1952 ft 189 kts 73°
2026-05-06 08:33 22.29362 113.79564 1689 ft 181 kts 73°
2026-05-06 08:33 22.29762 113.80787 1440 ft 165 kts 75°
2026-05-06 08:33 22.30121 113.81901 1256 ft 150 kts 74°
2026-05-06 08:34 22.30460 113.82956 1076 ft 150 kts 74°
2026-05-06 08:34 22.31134 113.85043 672 ft 146 kts 72°
2026-05-06 08:34 22.31476 113.86090 504 ft 147 kts 72°
2026-05-06 08:35 22.31813 113.87128 296 ft 147 kts 73°
2026-05-06 08:35 22.32148 113.88176 98 ft 147 kts 73°
2026-05-06 08:35 22.32465 113.89164 41 ft 127 kts 69°
2026-05-06 08:35 22.32713 113.89937 42 ft 91 kts 70°
2026-05-06 08:36 22.32871 113.90422 41 ft 51 kts 70°
2026-05-06 08:36 22.32950 113.90735 41 ft 32 kts 96°
2026-05-06 08:36 22.32909 113.90908 41 ft 18 kts 130°
2026-05-06 08:36 22.32831 113.90879 41 ft 13 kts 236°
2026-05-06 08:37 22.32802 113.90784 42 ft 13 kts 253°
2026-05-06 08:37 22.32775 113.90689 42 ft 13 kts 252°
2026-05-06 08:37 22.32743 113.90589 41 ft 18 kts 250°
2026-05-06 08:37 22.32707 113.90482 41 ft 15 kts 250°
2026-05-06 08:38 22.32648 113.90369 42 ft 13 kts 187°
2026-05-06 08:38 22.32601 113.90378 42 ft 16 kts 167°
2026-05-06 08:38 22.32437 113.90440 41 ft 23 kts 161°
2026-05-06 08:38 22.32287 113.90497 41 ft 23 kts 160°
2026-05-06 08:39 22.32136 113.90553 41 ft 23 kts 161°
2026-05-06 08:39 22.31988 113.90608 41 ft 23 kts 160°
2026-05-06 08:39 22.31839 113.90667 42 ft 23 kts 160°
2026-05-06 08:39 22.31697 113.90716 42 ft 18 kts 168°
2026-05-06 08:40 22.31631 113.90613 41 ft 19 kts 251°
2026-05-06 08:40 22.31589 113.90482 41 ft 19 kts 251°
2026-05-06 08:40 22.31546 113.90351 41 ft 19 kts 250°
2026-05-06 08:40 22.31499 113.90205 41 ft 24 kts 251°
2026-05-06 08:41 22.31445 113.90038 41 ft 23 kts 250°
2026-05-06 08:41 22.31392 113.89876 41 ft 23 kts 250°
2026-05-06 08:41 22.31339 113.89770 42 ft 14 kts 194°
2026-05-06 08:41 22.31246 113.89795 42 ft 14 kts 160°
2026-05-06 08:42 22.31155 113.89832 41 ft 14 kts 159°
2026-05-06 08:42 22.31060 113.89868 41 ft 18 kts 163°
2026-05-06 08:42 22.30917 113.89916 41 ft 21 kts 159°
2026-05-06 08:42 22.30903 113.90053 41 ft 21 kts 67°
2026-05-06 08:43 22.30956 113.90203 41 ft 21 kts 72°
2026-05-06 08:43 22.30999 113.90355 41 ft 21 kts 73°
2026-05-06 08:43 22.31044 113.90507 40 ft 21 kts 70°
2026-05-06 08:43 22.31095 113.90659 41 ft 24 kts 71°
2026-05-06 08:44 22.31158 113.90850 42 ft 23 kts 69°
2026-05-06 08:44 22.31209 113.91012 42 ft 23 kts 72°
2026-05-06 08:44 22.31262 113.91172 42 ft 23 kts 69°
2026-05-06 08:44 22.31302 113.91332 42 ft 22 kts 103°
2026-05-06 08:45 22.31173 113.91408 42 ft 22 kts 162°
2026-05-06 08:45 22.31028 113.91461 41 ft 22 kts 161°
2026-05-06 08:45 22.30883 113.91515 41 ft 22 kts 161°
2026-05-06 08:45 22.30738 113.91570 41 ft 22 kts 160°
2026-05-06 08:46 22.30594 113.91626 41 ft 22 kts 160°
2026-05-06 08:46 22.30476 113.91586 41 ft 22 kts 252°
2026-05-06 08:46 22.30397 113.91467 41 ft 20 kts 183°
2026-05-06 08:46 22.30267 113.91508 41 ft 20 kts 160°
2026-05-06 08:47 22.30119 113.91565 42 ft 21 kts 163°
2026-05-06 08:47 22.30030 113.91638 41 ft 17 kts 72°
2026-05-06 08:47 22.30070 113.91754 41 ft 17 kts 69°
2026-05-06 08:47 22.30107 113.91872 41 ft 17 kts 76°
2026-05-06 08:48 22.30143 113.91990 40 ft 17 kts 75°
2026-05-06 08:48 22.30059 113.92060 41 ft 17 kts 161°
2026-05-06 08:48 22.29968 113.92110 41 ft 12 kts 100°
2026-05-06 08:48 22.29995 113.92194 41 ft 12 kts 70°
2026-05-06 08:49 22.29997 113.92227 41 ft 0 kts 111°
2026-05-06 08:49 22.29958 113.92258 41 ft 7 kts 156°
2026-05-06 08:49 22.29921 113.92273 41 ft 0 kts 161°